Regional Weather Roundup
Issued by NWS

Home | Current Version | Previous Version | Graphics & Text | Print | Product List | Glossary On
Versions: 1 2 3 4 5 6 7 8 9 10 11 12 13 14 15 16 17 18 19 20 21 22 23 24 25 26 27 28 29 30 31 32 33 34 35 36 37 38 39 40 41 42 43 44 45 46 47 48 49 50
000
ASUS43 KIND 052159
RWRIN

WEATHER ROUNDUP FOR INDIANA
NATIONAL WEATHER SERVICE INDIANAPOLIS IN
600 PM EDT THU MAY 05 2016

NOTE: "FAIR" INDICATES FEW OR NO CLOUDS BELOW 12,000 FEET WITH NO
SIGNIFICANT WEATHER AND/OR OBSTRUCTIONS TO VISIBILITY.

* - STATION DOES NOT REPORT WEATHER SUCH AS PRECIPITATION OR FOG.

+ - STATION NOT QUALITY CONTROLLED BY THE NATIONAL WEATHER SERVICE.
    USE DATA WITH CAUTION...ESPECIALLY DEWPOINT AND RELATIVE
    HUMIDITY OBSERVATIONS.

INZ001>003-010>013-019-020-052300-
NORTHWEST INDIANA

CITY           SKY/WX    TMP DP  RH WIND       PRES   REMARKS
RENSSELAER +   SUNNY     61  41  48 N14       29.97R

$$

LMZ046-743>745-052300-
SOUTHERN LAKE MICHIGAN

STATION/POSITION TIME  TEMP    WIND        PRES    WAVE
                       AIR SEA DIR/SP/G            HT
                 (UTC) (F)     (DEG/KT/KT) (MB)    (FT)
BURNS HARBOR     2118   44      20/  7/ 10 1016.6F
MICHIGAN CITY    2100   45     340/  8/  9   N/A

$$

INZ004-005-014>016-021>024-052300-
NORTH CENTRAL INDIANA

CITY           SKY/WX    TMP DP  RH WIND       PRES   REMARKS
ELKHART        SUNNY     59  48  67 NW14G20   29.94R
GOSHEN         PTSUNNY   61  47  59 NW15      29.91R
SOUTH BEND     SUNNY     55  44  66 NW15      29.95F

$$

INZ006>009-017-018-025>027-052300-
NORTHEAST INDIANA

CITY           SKY/WX    TMP DP  RH WIND       PRES   REMARKS
ANGOLA *+        N/A     63  39  42 N10       29.88S
FORT WAYNE     PTSUNNY   65  44  46 N10       29.87S

$$

INZ028-029-035-036-043>045-051>053-052300-
WEST CENTRAL INDIANA

CITY           SKY/WX    TMP DP  RH WIND       PRES   REMARKS
CRAWFORDSVL +  PTSUNNY   62  45  53 N14       29.93S
GREENCASTLE +  MOSUNNY   61  48  63 N13       29.93F
LAFAYETTE      SUNNY     63  42  46 N15       29.94R
TERRE HAUTE    SUNNY     63  45  51 NE10      29.94S

$$

INZ030>032-037>040-046>048-054>057-064-065-052300-
CENTRAL INDIANA

CITY           SKY/WX    TMP DP  RH WIND       PRES   REMARKS
COLUMBUS       PTSUNNY   59  50  72 NW9       29.89S
INDIANAPOLIS   PTSUNNY   61  46  57 NW17      29.89F
-EAGLE CREEK   PTSUNNY   63  47  55 N14G23    29.89F
KOKOMO *+      PTSUNNY   64  46  52 N20       29.89S
SHELBYVILLE    MOSUNNY   65  47  52 N16       29.88R

$$

INZ033-034-041-042-049-050-058-059-052300-
EAST CENTRAL INDIANA

CITY           SKY/WX    TMP DP  RH WIND       PRES   REMARKS
MUNCIE         MOSUNNY   63  46  54 N9        29.87F

$$

INZ060-061-067>069-081>083-085>088-052300-
SOUTHWEST INDIANA

CITY           SKY/WX    TMP DP  RH WIND       PRES   REMARKS
EVANSVILLE     PTSUNNY   60  45  57 NW9       29.96S
HUNTINGBURG *+ CLOUDY    59  46  63 N7        29.94S

$$

INZ062-063-066-070>080-084-089>092-052300-
SOUTH CENTRAL AND SOUTHEAST INDIANA

CITY           SKY/WX    TMP DP  RH WIND       PRES   REMARKS
BLOOMINGTON    SUNNY     60  44  55 N8        29.93S
MADISON *+     CLOUDY    57  45  62 W3        29.90F
SEYMOUR +      PTSUNNY   63  45  51 N12       29.89S

$$





USA.gov is the U.S. government's official web portal to all federal, state and local government web resources and services.